EHI
0 0 0 0 0 0 0 0 0 0 0 0 0 0 0 0 0 0 0 0 0 0 0 0 0 0 0 0 0 0 0 0 0 0 0 0 0 0
0 0 0 0 0 0 0 0 0 0 0 0 0 0 0 0 0 0 0 0 0 0 0 0 0 0 0 0 0 0 0 0 0 0 0 0 0 0
0 0 0 0 0 0 0 0 0 0 0 0 0 0 0 0 0 0 0 0 0 0 0 0 0 0 0 0 0 0 0 0 0 0 0 0 0 0
0 0 0 0 0 0 0 0 0 0 0 0 0 0 0 0 0 0 0 0 0 0 0 0 0 0 0 0 0 0 0 0 0 0 0 0 0 0
0 0 0 0 0 0 0 0 0 0 0 0 0 0 0 0 0 0 0 0 0 0 0 0 0 0 0 0 0 0 0 0 0 0 0 0 0 0
0 0 0 0 0 0 0 0 0 0 0 0 0 0 0 0 0 0 0 0 0 0 0 0 0 0 0 0 0 0 0 0 0 0 0 0 0 0
0 0 0 0 0 0 0 0 0 0 0 0 0 0 0 0 0 0 0 0 0 0 0 0 0 0 0 0 0 0 0 0 0 0 0 0 0 0
0 0 0 0 0 0 0 0 0 0 0 0 0 0 0 0 0 0 0 0 0 0 0 0 0 0 0 0 0 0 0 0 0 0 0 0 0 0
0 0 0 0 0 0 0 0 0 0 0 0 0 0 0 0 0 0 0 0 0 0 0 0 0 0 0 0 0 0 0 0 0 0 0 0 0 0
0 0 0 0 0 0 0 0 0 0 0 0 0 0 0 0 0 0 0 0 0 0 0 0 0 0 0 0 0 0 0 0 0 0 0 0 0 0
0 0 0 0 0 0 0 0 0 0 0 0 0 0 0 0 0 0 0 0 0 0 0 0 0 0 0 0 0 0 0 0 0 0 0 0 0 0
0 0 0 0 0 0 0 0 0 0 0 0 0 0 0 0 0 0 0 0 0 0 0 0 0 0 0 0 0 0 0 0 0 0 0 0 0 0
0 0 0 0 0 0 0 0 0 0 0 0 0 0 0 0 0 0 0 0 0 0 0 0 0 0 0 0 0 0 0 0 0 0 0 0 0 0
0 0 0 0 0 0 0 0 0 0 0 0 0 0 0 0 0 0 0 0 0 0 0 0 0 0 0 0 0 0 0 0 0 0 0 0 0 0
0 0 0 0 0 0 0 0 0 0 0 0 0 0 0 0 0 0 0 0 0 0 0 0 0 0 0 0 0 0 0 0 0 0 0 0 0 0
0 0 0 0 0 0 0 0 0 0 0 0 0 0 0 0 0 0 0 0 0 0 0 0 0 0 0 0 0 0 0 0 0 0 0 0 0 0
0 0 0 0 0 0 0 0 0 0 0 0 0 0 0 0 0 0 0 0 0 0 0 0 0 0 0 0 0 0 0 0 0 0 0 0 0 0
0 0 0 0 0 0 0 0 0 0 0 0 0 0 0 0 0 0 0 0 0 0 0 0 0 0 0 0 0 0 0 0 0 0 0 0 0 0
0 0 0 0 0 0 0 0 0 0 0 0 0 0 0 0 0 0 0 0 0 0 0 0 0 0 0 0 0 0 0 0 0 0 0 0 0 0
0 0 0 0 0 0 0 0 0 0 0 0 0 0 0 0 0 0 0 0 0 0 0 0 0 0 0 0 0 0 0 0 0 0 0 0 0 0
0 0 0 0 0 0 0 0 0 0 0 0 0 0 0 0 0 0 0 0 0 0 0 0 0 0 0 0 0 0 0 0 0 0 0 0 0 0
0 0 0 0 0 0 0 0 0 0 0 0 0 0 0 0 0 0 0 0 0 0 0 0 0 0 0 0 0 0 0 0 0 0 0 0 0 0
0 0 0 0 0 0 0 0 0 0 0 0 0 0 0 0 0 0 0 0 0 0 0 0 0 0 0 0 0 0 0 0 0 0 0 0 0 0
Wind_Speed
3 3 2 2 2 2 2 3 3 2 3 2 2 1 1 1 4 2 3 7 8 8 8 8 8 7 8 8 8 9 9 9 8 8 9 9 10 10
2 3 3 2 2 2 2 2 2 3 3 2 2 2 2 2 4 3 3 7 7 8 7 7 7 7 7 8 8 9 9 9 8 8 8 9 10 11
3 3 3 3 2 2 2 2 2 2 3 2 1 1 1 2 3 3 3 3 3 7 7 7 7 7 7 7 8 8 9 9 8 8 9 10 11 11
4 4 4 3 3 2 2 2 2 2 2 3 2 1 2 2 2 3 3 3 3 6 7 7 7 7 7 7 7 7 8 8 8 8 9 10 11 10
4 5 4 4 4 3 3 3 2 2 2 2 2 1 1 1 2 3 3 2 3 4 6 6 7 7 7 7 7 7 7 7 8 8 8 9 10 11
4 4 5 5 5 4 4 3 2 2 2 2 2 1 1 1 1 2 3 3 3 3 4 5 6 7 7 7 7 7 7 7 8 8 8 9 10 11
3 3 4 4 5 4 3 4 4 3 2 2 2 1 2 1 2 1 3 3 3 1 3 3 3 3 4 6 6 6 7 7 8 8 9 9 10 10
3 3 3 4 4 5 5 4 4 4 3 2 2 3 3 2 2 2 2 2 3 1 2 3 2 3 3 3 5 7 7 7 7 8 8 9 10 10
3 3 2 2 3 3 4 4 5 5 5 4 4 4 3 3 2 3 2 2 4 2 2 3 2 3 3 4 7 6 7 7 7 8 9 9 10 11
3 4 4 3 3 3 3 3 4 4 4 3 4 4 4 3 4 4 3 2 3 2 1 3 2 3 4 3 6 6 6 7 7 8 9 10 10 10
3 3 4 4 5 4 3 3 3 3 3 4 4 4 3 3 1 0 0 1 2 2 1 1 2 3 3 2 4 6 6 7 8 8 9 10 11 10
2 3 5 5 5 5 4 3 4 3 2 2 2 2 2 2 2 2 2 2 1 2 1 1 1 2 3 2 2 3 4 6 8 9 10 10 11 5
3 2 3 5 6 5 4 4 5 3 2 2 1 1 1 1 2 2 2 2 2 3 2 0 1 1 1 3 3 2 2 3 4 5 8 10 10 7
3 3 3 5 5 5 4 4 4 2 1 1 1 1 2 2 2 2 2 2 2 3 3 1 1 1 1 3 3 3 3 3 3 3 4 8 8 9
3 4 4 4 4 4 4 4 3 2 2 2 2 2 2 2 1 1 1 0 1 1 1 2 2 2 2 2 3 3 3 3 2 3 4 4 4 4
2 3 3 3 2 2 2 3 2 2 3 3 2 2 1 1 1 1 1 1 0 1 1 1 2 2 2 3 3 3 3 3 3 3 4 4 4 3
1 1 1 1 1 1 1 1 1 1 2 2 2 2 2 1 1 1 1 1 1 1 1 1 1 1 2 2 3 3 3 3 3 3 4 4 4 4
2 2 2 2 2 2 2 2 2 2 2 2 2 2 2 2 1 1 1 1 1 1 1 1 1 2 1 2 3 3 2 2 3 3 3 4 5 4
2 2 2 3 2 2 2 2 2 2 2 2 2 2 2 2 2 2 1 1 1 2 1 1 1 0 2 3 3 2 2 2 3 3 3 3 4 5
2 2 3 3 2 3 3 2 2 2 2 2 2 2 2 2 2 2 2 2 2 1 1 1 2 2 2 3 2 3 3 2 2 3 3 3 4 7
2 2 2 2 2 2 2 2 2 3 3 2 2 3 3 2 2 2 2 3 2 2 2 2 2 3 1 0 1 3 3 3 3 3 3 4 4 4
2 2 2 2 2 2 2 2 2 2 3 2 2 3 3 3 3 3 3 2 2 2 2 1 1 0 0 1 2 3 4 4 4 6 5 5 3 3
2 2 2 2 2 2 2 2 3 3 2 2 2 2 2 2 2 2 2 2 2 2 1 1 1 1 1 2 2 2 3 4 3 4 4 5 7 8
Wind_Direction
195 200 200 203 189 184 171 172 179 230 261 256 269 272 281 283 302 306 305 309 318 321 320 319 319 323 325 327 330 328 323 316 313 312 310 310 311 313
200 198 203 204 194 187 181 183 192 197 237 243 249 280 287 302 307 309 305 316 316 320 321 323 324 324 326 327 331 333 329 326 315 313 311 314 316 310
207 204 211 204 201 197 184 187 198 194 231 268 261 283 278 296 312 315 307 308 311 319 321 323 323 323 324 329 331 332 335 340 333 323 321 322 321 317
214 207 217 205 203 200 195 199 206 206 208 251 270 268 265 281 298 303 312 314 305 313 321 323 322 323 324 325 328 331 331 335 339 338 336 331 328 323
211 209 214 201 209 209 204 204 208 217 206 216 254 254 266 287 305 305 304 304 307 313 319 323 325 325 322 324 327 331 330 332 332 331 330 327 325 324
216 215 212 205 209 206 208 208 202 212 218 217 240 255 264 278 280 307 318 318 310 319 325 324 323 326 326 325 323 325 328 327 325 326 328 327 325 322
219 223 223 217 222 218 216 204 195 204 210 222 245 263 269 275 275 284 299 313 303 306 320 317 320 319 321 318 317 320 322 321 322 324 324 326 328 329
219 227 229 226 234 240 246 232 212 206 210 214 239 246 257 248 253 273 290 315 297 301 320 303 309 303 307 304 311 320 322 323 324 325 325 328 329 329
214 218 230 233 228 223 241 242 239 240 227 211 226 238 242 234 242 262 257 264 269 277 305 286 297 294 299 306 313 319 324 327 329 330 330 330 330 329
215 215 219 221 218 217 218 224 234 240 243 231 224 232 235 228 225 237 244 274 286 272 250 274 290 290 302 304 309 317 329 337 337 334 332 330 330 330
225 222 221 220 232 231 216 222 242 262 277 266 266 264 262 257 236 150 234 290 292 272 223 256 284 302 295 292 308 317 325 333 335 336 333 331 331 332
229 230 232 230 232 229 211 210 232 249 245 267 269 268 254 232 225 206 199 224 269 270 233 236 268 324 309 296 308 325 329 328 332 334 334 333 333 335
224 230 229 236 236 233 225 218 232 237 214 218 218 226 234 230 230 230 217 208 230 250 230 210 263 281 271 299 305 308 318 320 325 327 330 332 334 336
226 229 231 236 237 236 232 236 241 234 187 198 205 226 235 242 249 244 241 243 242 244 230 215 232 246 278 293 294 310 317 315 318 320 323 328 331 331
229 235 238 233 228 227 234 234 225 199 188 199 216 235 238 231 221 228 238 252 294 270 235 233 229 244 243 259 281 299 313 310 315 323 323 323 320 325
238 229 228 218 223 233 228 226 220 207 201 206 213 222 216 206 210 210 207 199 289 307 290 254 236 231 249 258 263 283 288 293 313 319 315 311 313 310
232 191 176 193 215 223 228 224 219 213 215 205 193 200 206 206 221 213 196 191 221 255 292 314 311 280 250 242 262 270 281 287 288 306 315 315 311 309
209 199 208 216 219 218 225 233 231 230 219 208 201 205 209 212 225 225 213 216 243 259 270 286 328 340 329 283 240 261 279 285 300 306 306 310 311 315
217 209 214 221 224 222 223 224 232 241 227 207 211 209 206 214 219 221 224 245 254 253 256 244 255 292 304 303 298 262 272 301 311 309 302 296 298 306
226 218 221 222 222 225 225 227 230 235 231 216 209 204 204 208 217 222 222 228 243 252 256 240 227 230 236 259 274 286 292 288 293 301 306 302 291 295
230 225 224 225 230 231 229 227 225 230 233 222 209 204 205 210 221 222 221 234 234 234 246 252 254 270 271 274 286 293 294 292 287 287 302 305 308 315
225 225 228 230 231 231 233 230 227 230 231 224 213 209 208 211 216 215 211 217 227 237 250 266 270 284 241 247 268 285 301 311 312 304 287 269 284 299
225 225 228 231 232 230 227 229 230 229 227 229 219 209 206 213 214 210 210 215 220 226 229 250 284 289 268 257 265 279 293 308 320 327 317 308 294 286